Location: Big Prairie
(40.6673°N, 82.0952°W)
Time: 01:08:41
(UTC+00:00)

Cosmos 841 Rocket - Pass Details

Date: 30 June 2022
Orbit: 745 x 772 km, 74.0° (Epoch: 15 August)

Event Time Altitude Azimuth Distance (km) Brightness Sun altitude
Exits shadow 09:04:55 10° 249° (WSW) 2,276 5.4 -9.3°
Reaches altitude 10° 09:04:58 10° 250° (WSW) 2,260 5.4 -9.3°
Maximum altitude 09:08:56 22° 301° (WNW) 1,585 5.0 -8.7°
Drops below altitude 10° 09:12:57 10° 352° (N) 2,279 6.4 -8.1°
Sets 09:15:50 0° 7° (N) 3,212 7.5 -7.7°
